Time,TemperatureF,DewpointF,PressureIn,WindDirection,WindDirectionDegrees,WindSpeedMPH,WindSpeedGustMPH,Humidity,HourlyPrecipIn,Conditions,Clouds,dailyrainin,SoftwareType,DateUTC
2013-06-21 00:06:00,48.0,43.0,29.91,NNW,348,3.0,8.0,83,0.00,,,0.00,weatherlink.com 1.10,2013-06-21 06:06:00,
2013-06-21 00:22:00,47.9,43.0,29.91,North,360,7.0,11.0,84,0.00,,,0.00,weatherlink.com 1.10,2013-06-21 06:22:00,
2013-06-21 00:37:00,47.7,43.0,29.91,North,5,7.0,11.0,83,0.00,,,0.00,weatherlink.com 1.10,2013-06-21 06:37:00,
2013-06-21 00:52:00,46.5,42.0,29.91,NNW,344,4.0,9.0,85,0.00,,,0.00,weatherlink.com 1.10,2013-06-21 06:52:00,
2013-06-21 01:07:00,45.7,42.0,29.91,North,355,7.0,7.0,87,0.00,,,0.00,weatherlink.com 1.10,2013-06-21 07:07:00,
2013-06-21 01:22:00,45.9,42.0,29.91,NNW,342,10.0,12.0,86,0.00,,,0.00,weatherlink.com 1.10,2013-06-21 07:22:00,
2013-06-21 01:37:00,45.6,41.0,29.91,NNE,19,9.0,11.0,85,0.00,,,0.00,weatherlink.com 1.10,2013-06-21 07:37:00,
2013-06-21 01:52:00,45.4,42.0,29.91,North,5,5.0,9.0,86,0.00,,,0.00,weatherlink.com 1.10,2013-06-21 07:52:00,
2013-06-21 02:07:00,45.1,41.0,29.92,NNW,338,4.0,9.0,86,0.00,,,0.00,weatherlink.com 1.10,2013-06-21 08:07:00,
2013-06-21 02:22:00,44.7,41.0,29.92,North,350,6.0,8.0,86,0.00,,,0.00,weatherlink.com 1.10,2013-06-21 08:22:00,
2013-06-21 02:37:00,44.3,41.0,29.92,NNE,15,5.0,8.0,87,0.00,,,0.00,weatherlink.com 1.10,2013-06-21 08:37:00,
2013-06-21 02:52:00,44.2,41.0,29.92,North,10,4.0,6.0,87,0.00,,,0.00,weatherlink.com 1.10,2013-06-21 08:52:00,
2013-06-21 03:07:00,43.8,40.0,29.92,NNE,15,5.0,6.0,86,0.00,,,0.00,weatherlink.com 1.10,2013-06-21 09:07:00,
2013-06-21 03:22:00,44.0,41.0,29.92,North,355,4.0,8.0,88,0.00,,,0.00,weatherlink.com 1.10,2013-06-21 09:22:00,
2013-06-21 03:37:00,43.7,41.0,29.92,North,5,6.0,8.0,89,0.00,,,0.00,weatherlink.com 1.10,2013-06-21 09:37:00,
2013-06-21 03:52:00,43.4,40.0,29.93,NNE,21,6.0,8.0,89,0.00,,,0.00,weatherlink.com 1.10,2013-06-21 09:52:00,
2013-06-21 04:07:00,43.4,40.0,29.93,NNE,26,4.0,8.0,88,0.00,,,0.00,weatherlink.com 1.10,2013-06-21 10:07:00,
2013-06-21 04:22:00,43.1,40.0,29.92,NNE,14,5.0,9.0,89,0.00,,,0.00,weatherlink.com 1.10,2013-06-21 10:22:00,
2013-06-21 04:37:00,42.6,40.0,29.92,NW,323,1.0,6.0,89,0.00,,,0.00,weatherlink.com 1.10,2013-06-21 10:37:00,
2013-06-21 04:52:00,42.0,39.0,29.93,North,5,5.0,7.0,90,0.00,,,0.00,weatherlink.com 1.10,2013-06-21 10:52:00,
2013-06-21 05:07:00,41.4,39.0,29.94,ENE,61,5.0,7.0,91,0.00,,,0.00,weatherlink.com 1.10,2013-06-21 11:07:00,
2013-06-21 05:22:00,41.7,39.0,29.94,NE,38,5.0,7.0,90,0.00,,,0.00,weatherlink.com 1.10,2013-06-21 11:22:00,
2013-06-21 05:37:00,41.6,39.0,29.94,North,11,2.0,3.0,90,0.00,,,0.00,weatherlink.com 1.10,2013-06-21 11:37:00,
2013-06-21 05:52:00,41.8,39.0,29.94,NE,44,3.0,6.0,90,0.00,,,0.00,weatherlink.com 1.10,2013-06-21 11:52:00,
2013-06-21 06:07:00,41.6,39.0,29.95,NNE,27,0.0,0.0,90,0.00,,,0.00,weatherlink.com 1.10,2013-06-21 12:07:00,
2013-06-21 06:22:00,41.5,39.0,29.95,NNE,27,0.0,2.0,91,0.00,,,0.00,weatherlink.com 1.10,2013-06-21 12:22:00,
2013-06-21 06:37:00,40.7,39.0,29.95,NNE,27,0.0,0.0,92,0.00,,,0.00,weatherlink.com 1.10,2013-06-21 12:37:00,
2013-06-21 06:52:00,41.5,39.0,29.95,NNE,27,0.0,0.0,92,0.00,,,0.00,weatherlink.com 1.10,2013-06-21 12:52:00,
2013-06-21 07:08:00,43.0,41.0,29.95,NE,44,0.0,2.0,91,0.00,,,0.00,weatherlink.com 1.10,2013-06-21 13:08:00,
2013-06-21 07:23:00,44.5,41.0,29.95,NE,44,0.0,1.0,88,0.00,,,0.00,weatherlink.com 1.10,2013-06-21 13:23:00,
2013-06-21 07:53:00,46.6,42.0,29.95,ENE,57,0.0,3.0,83,0.00,,,0.00,weatherlink.com 1.10,2013-06-21 13:53:00,
2013-06-21 08:23:00,46.4,42.0,29.96,SE,140,2.0,5.0,83,0.00,,,0.00,weatherlink.com 1.10,2013-06-21 14:23:00,
2013-06-21 08:38:00,47.1,42.0,29.96,SSW,213,1.0,4.0,83,0.00,,,0.00,weatherlink.com 1.10,2013-06-21 14:38:00,
2013-06-21 08:53:00,48.1,43.0,29.95,SSE,165,3.0,3.0,82,0.00,,,0.00,weatherlink.com 1.10,2013-06-21 14:53:00,
2013-06-21 09:08:00,49.9,44.0,29.95,ESE,108,0.0,2.0,79,0.00,,,0.00,weatherlink.com 1.10,2013-06-21 15:08:00,
2013-06-21 09:23:00,51.9,44.0,29.95,North,351,0.0,2.0,75,0.00,,,0.00,weatherlink.com 1.10,2013-06-21 15:23:00,
2013-06-21 09:38:00,52.5,43.0,29.95,South,177,2.0,3.0,70,0.00,,,0.00,weatherlink.com 1.10,2013-06-21 15:38:00,
2013-06-21 09:53:00,53.1,44.0,29.94,NE,54,1.0,4.0,71,0.00,,,0.00,weatherlink.com 1.10,2013-06-21 15:53:00,
2013-06-21 10:08:00,53.5,44.0,29.94,South,188,3.0,7.0,69,0.00,,,0.00,weatherlink.com 1.10,2013-06-21 16:08:00,
2013-06-21 10:23:00,54.3,43.0,29.94,SW,221,0.0,7.0,66,0.00,,,0.00,weatherlink.com 1.10,2013-06-21 16:23:00,
2013-06-21 10:38:00,55.3,41.0,29.93,South,187,6.0,6.0,60,0.00,,,0.00,weatherlink.com 1.10,2013-06-21 16:38:00,
2013-06-21 10:53:00,56.4,41.0,29.93,WSW,246,0.0,6.0,57,0.00,,,0.00,weatherlink.com 1.10,2013-06-21 16:53:00,
2013-06-21 11:08:00,57.1,43.0,29.92,West,270,0.0,6.0,59,0.00,,,0.00,weatherlink.com 1.10,2013-06-21 17:08:00,
2013-06-21 11:23:00,58.2,44.0,29.91,SW,233,2.0,5.0,59,0.00,,,0.00,weatherlink.com 1.10,2013-06-21 17:23:00,
2013-06-21 11:38:00,58.7,42.0,29.91,NW,324,1.0,6.0,55,0.00,,,0.00,weatherlink.com 1.10,2013-06-21 17:38:00,
2013-06-21 12:09:00,61.0,41.0,29.90,NNW,334,3.0,7.0,48,0.00,,,0.00,weatherlink.com 1.10,2013-06-21 18:09:00,
2013-06-21 12:24:00,61.5,43.0,29.90,WNW,292,4.0,9.0,50,0.00,,,0.00,weatherlink.com 1.10,2013-06-21 18:24:00,
2013-06-21 12:39:00,61.8,44.0,29.89,NNW,336,7.0,11.0,52,0.00,,,0.00,weatherlink.com 1.10,2013-06-21 18:39:00,
2013-06-21 12:54:00,61.3,43.0,29.89,NW,315,10.0,14.0,51,0.00,,,0.00,weatherlink.com 1.10,2013-06-21 18:54:00,
2013-06-21 13:09:00,61.5,43.0,29.89,SW,229,4.0,10.0,50,0.00,,,0.00,weatherlink.com 1.10,2013-06-21 19:09:00,
2013-06-21 13:24:00,62.8,42.0,29.88,NW,324,3.0,10.0,47,0.00,,,0.00,weatherlink.com 1.10,2013-06-21 19:24:00,
2013-06-21 13:39:00,63.7,41.0,29.88,West,263,4.0,9.0,44,0.00,,,0.00,weatherlink.com 1.10,2013-06-21 19:39:00,
2013-06-21 13:54:00,63.2,41.0,29.87,West,280,4.0,11.0,45,0.00,,,0.00,weatherlink.com 1.10,2013-06-21 19:54:00,
2013-06-21 14:09:00,-999.0,-99.9,29.87,North,-999,-999.0,-999.0,-999,0.00,,,0.00,weatherlink.com 1.10,2013-06-21 20:09:00,
2013-06-21 14:24:00,65.3,40.0,29.86,North,349,6.0,8.0,40,0.00,,,0.00,weatherlink.com 1.10,2013-06-21 20:24:00,
2013-06-21 14:39:00,65.6,42.0,29.86,NNW,332,4.0,10.0,43,0.00,,,0.00,weatherlink.com 1.10,2013-06-21 20:39:00,
2013-06-21 14:54:00,64.8,40.0,29.86,NW,323,7.0,10.0,40,0.00,,,0.00,weatherlink.com 1.10,2013-06-21 20:54:00,
2013-06-21 15:09:00,65.1,43.0,29.86,WNW,290,6.0,13.0,45,0.00,,,0.00,weatherlink.com 1.10,2013-06-21 21:09:00,
2013-06-21 15:24:00,66.1,39.0,29.86,West,271,1.0,11.0,37,0.00,,,0.00,weatherlink.com 1.10,2013-06-21 21:24:00,
2013-06-21 15:39:00,66.7,40.0,29.86,West,281,5.0,9.0,38,0.00,,,0.00,weatherlink.com 1.10,2013-06-21 21:39:00,
2013-06-21 15:54:00,67.6,42.0,29.85,NW,326,4.0,11.0,39,0.00,,,0.00,weatherlink.com 1.10,2013-06-21 21:54:00,
2013-06-21 16:09:00,67.6,39.0,29.85,NW,318,7.0,14.0,35,0.00,,,0.00,weatherlink.com 1.10,2013-06-21 22:09:00,
2013-06-21 16:24:00,66.6,39.0,29.85,North,5,6.0,13.0,36,0.00,,,0.00,weatherlink.com 1.10,2013-06-21 22:24:00,
2013-06-21 16:39:00,66.3,38.0,29.85,North,360,7.0,15.0,36,0.00,,,0.00,weatherlink.com 1.10,2013-06-21 22:39:00,
2013-06-21 16:54:00,67.0,40.0,29.84,NW,313,8.0,15.0,37,0.00,,,0.00,weatherlink.com 1.10,2013-06-21 22:54:00,
2013-06-21 17:09:00,67.7,39.0,29.84,NNE,15,5.0,13.0,35,0.00,,,0.00,weatherlink.com 1.10,2013-06-21 23:09:00,
2013-06-21 17:24:00,67.1,38.0,29.84,NNW,343,10.0,17.0,35,0.00,,,0.00,weatherlink.com 1.10,2013-06-21 23:24:00,
2013-06-21 17:39:00,67.7,41.0,29.84,NNW,336,4.0,12.0,38,0.00,,,0.00,weatherlink.com 1.10,2013-06-21 23:39:00,
2013-06-21 17:54:00,67.4,41.0,29.84,North,11,6.0,13.0,38,0.00,,,0.00,weatherlink.com 1.10,2013-06-21 23:54:00,
2013-06-21 18:09:00,66.5,41.0,29.84,NW,322,7.0,12.0,40,0.00,,,0.00,weatherlink.com 1.10,2013-06-22 00:09:00,
2013-06-21 18:24:00,65.5,40.0,29.84,NW,325,13.0,18.0,39,0.00,,,0.00,weatherlink.com 1.10,2013-06-22 00:24:00,
2013-06-21 18:39:00,65.7,42.0,29.84,NNW,341,11.0,13.0,42,0.00,,,0.00,weatherlink.com 1.10,2013-06-22 00:39:00,
2013-06-21 18:54:00,65.0,40.0,29.85,NNW,343,7.0,16.0,40,0.00,,,0.00,weatherlink.com 1.10,2013-06-22 00:54:00,
2013-06-21 19:09:00,63.7,40.0,29.85,NW,309,9.0,20.0,42,0.00,,,0.00,weatherlink.com 1.10,2013-06-22 01:09:00,
2013-06-21 19:24:00,60.6,40.0,29.86,NW,325,7.0,17.0,47,0.00,,,0.00,weatherlink.com 1.10,2013-06-22 01:24:00,
2013-06-21 19:39:00,58.4,43.0,29.87,North,360,9.0,16.0,57,0.00,,,0.00,weatherlink.com 1.10,2013-06-22 01:39:00,
2013-06-21 19:54:00,58.4,42.0,29.87,North,355,7.0,13.0,55,0.00,,,0.00,weatherlink.com 1.10,2013-06-22 01:54:00,
2013-06-21 20:09:00,57.9,43.0,29.87,NE,41,9.0,15.0,57,0.00,,,0.00,weatherlink.com 1.10,2013-06-22 02:09:00,
2013-06-21 20:24:00,57.7,42.0,29.88,North,360,11.0,13.0,56,0.00,,,0.00,weatherlink.com 1.10,2013-06-22 02:24:00,
2013-06-21 20:39:00,58.4,42.0,29.87,NNW,336,10.0,13.0,55,0.00,,,0.00,weatherlink.com 1.10,2013-06-22 02:39:00,
2013-06-21 20:54:00,58.4,43.0,29.88,NNW,341,6.0,11.0,57,0.00,,,0.00,weatherlink.com 1.10,2013-06-22 02:54:00,
2013-06-21 21:09:00,57.8,43.0,29.88,North,355,7.0,15.0,59,0.00,,,0.00,weatherlink.com 1.10,2013-06-22 03:09:00,
2013-06-21 21:24:00,57.1,44.0,29.88,North,11,7.0,11.0,61,0.00,,,0.00,weatherlink.com 1.10,2013-06-22 03:24:00,
2013-06-21 21:39:00,56.1,43.0,29.89,NW,325,4.0,9.0,63,0.00,,,0.00,weatherlink.com 1.10,2013-06-22 03:39:00,
2013-06-21 21:54:00,55.2,44.0,29.89,NNW,331,8.0,9.0,65,0.00,,,0.00,weatherlink.com 1.10,2013-06-22 03:54:00,
2013-06-21 22:09:00,55.8,43.0,29.90,North,355,5.0,8.0,63,0.00,,,0.00,weatherlink.com 1.10,2013-06-22 04:09:00,
2013-06-21 22:24:00,54.3,43.0,29.91,North,355,7.0,8.0,67,0.00,,,0.00,weatherlink.com 1.10,2013-06-22 04:24:00,
2013-06-21 22:39:00,54.2,43.0,29.91,NNW,339,4.0,7.0,67,0.00,,,0.00,weatherlink.com 1.10,2013-06-22 04:39:00,
2013-06-21 22:54:00,53.7,44.0,29.91,NNW,330,2.0,7.0,69,0.00,,,0.00,weatherlink.com 1.10,2013-06-22 04:54:00,
2013-06-21 23:10:00,53.0,45.0,29.91,North,360,6.0,9.0,73,0.00,,,0.00,weatherlink.com 1.10,2013-06-22 05:10:00,
2013-06-21 23:25:00,52.8,44.0,29.91,North,355,6.0,7.0,72,0.00,,,0.00,weatherlink.com 1.10,2013-06-22 05:25:00,
2013-06-21 23:40:00,52.3,44.0,29.91,NNW,346,7.0,8.0,73,0.00,,,0.00,weatherlink.com 1.10,2013-06-22 05:40:00,
2013-06-21 23:55:00,52.0,44.0,29.91,North,5,8.0,10.0,73,0.00,,,0.00,weatherlink.com 1.10,2013-06-22 05:55:00,